This demonstration page uses our WeatherBlox Daily Observations layout. Learn more.

Left ArrowRight Arrow

34.02893, -84.19858

Hourly Observations for July 2, 2021

Temp ( °F °C ) Dew Point ( °F °C ) Humidity (%) Winds ( mph kmh ) Pressure ( in mb ) Visibility ( mi km ) Precip ( " mm )
12:53 am 00:53 Mostly Cloudy 76 24.4 70 21.1 82 82 SW 6 9 29.91 1013 10 16 0.00 0.00
1:53 am 01:53 Cloudy 76 24.4 70 21.1 82 82 S 6 9 29.89 1012 10 16 0.00 0.00
2:25 am 02:25 Cloudy 75 23.9 70 21.1 84 84 S 8 13 29.90 1013 10 16 0.00 0.00
2:49 am 02:49 Mostly Cloudy with Light Rain 75 24 70 21 83 83 S 7 11 29.89 1012 10 16 0.00 0.00
2:53 am 02:53 Mostly Cloudy with Light Rain 74 23.3 70 21.1 88 88 S 9 15 29.87 1012 10 16 0.00 0.00
3:27 am 03:27 Mostly Cloudy 75 23.9 70 21.1 84 84 SW 8 13 29.88 1012 10 16 0.00 0.00
3:53 am 03:53 Mostly Cloudy 74 23.3 70 21.1 88 88 SW 9 15 29.86 1011 10 16 0.00 0.00
4:53 am 04:53 Partly Cloudy 74 23.3 70 21.1 88 88 WSW 8 13 29.84 1011 10 16 0.00 0.00
5:53 am 05:53 Mostly Clear 73 22.8 71 21.7 94 94 WSW 6 9 29.85 1011 10 16 0.00 0.00
6:08 am 06:08 Mostly Cloudy with Light Rain 73 22.8 71 21.7 94 94 WSW 6 9 29.87 1012 10 16 0.00 0.00
6:53 am 06:53 Cloudy with Light Rain 73 22.8 71 21.7 94 94 WNW 8 13 29.87 1012 9 14 0.00 0.00
7:53 am 07:53 Cloudy with Light Rain 72 22.2 71 21.7 97 97 WNW 3 6 29.88 1012 5 8 0.04 1.02
8:00 am 08:00 Cloudy with Light Rain 72 22.2 71 21.7 97 97 WSW 3 6 29.90 1012 5 8 0.01 0.25
8:32 am 08:32 Cloudy with Light Rain 72 22.2 71 21.7 97 97 WSW 3 6 29.91 1013 4 6 0.03 0.76
8:43 am 08:43 Cloudy with Rain 72 22.2 71 21.7 97 97 WSW 6 9 29.91 1013 2 3 0.06 1.52
8:49 am 08:49 Cloudy with Rain 72 22 72 22 100 100 WSW 5 7 29.91 1013 2 3 0.08 2.03
8:50 am 08:50 Cloudy with Rain 72 22.2 71 21.7 97 97 WSW 5 7 29.89 1012 2 3 0.08 2.03
9:14 am 09:14 Cloudy with Rain 73 22.8 72 22.2 96 96 W 5 7 29.91 1013 2 3 0.10 2.54
9:53 am 09:53 Cloudy with Light Rain 73 22.8 72 22.2 96 96 WSW 5 7 29.89 1012 2 3 0.16 4.06
10:00 am 10:00 Mostly Cloudy with Light Rain 73 22.8 72 22.2 96 96 WSW 5 7 29.90 1013 4 6 0.01 0.25
10:14 am 10:14 Cloudy with Light Rain 73 22.8 72 22.2 96 96 SW 6 9 29.89 1012 4 6 0.02 0.51
10:34 am 10:34 Cloudy 73 22.8 73 22.8 100 100 SSW 7 11 29.90 1013 10 16 0.03 0.76
10:53 am 10:53 Mostly Cloudy 74 23.3 72 22.2 94 94 SW 7 11 29.88 1012 10 16 0.03 0.76
11:53 am 11:53 Mostly Cloudy 75 23.9 72 22.2 90 90 WSW 6 9 29.89 1012 10 16 0.00 0.00
12:00 pm 12:00 Cloudy 75 23.9 72 22.2 90 90 VRB 5 7 29.90 1013 10 16 0.00 0.00
12:10 pm 12:10 Cloudy 75 23.9 72 22.2 90 90 WSW 6 9 29.89 1012 10 16 0.00 0.00
12:32 pm 12:32 Mostly Cloudy with Light Rain 76 24.4 72 22.2 88 88 W 5 7 29.89 1012 10 16 0.00 0.00
12:53 pm 12:53 Cloudy with Light Rain 75 23.9 72 22.2 90 90 W 6 9 29.87 1012 8 13 0.00 0.00
1:53 pm 13:53 Cloudy 77 25 72 22.2 85 85 WNW 8 13 29.86 1011 10 16 0.00 0.00
2:53 pm 14:53 Mostly Cloudy 77 25 71 21.7 82 82 W 6 9 29.84 1010 10 16 0.00 0.00
3:53 pm 15:53 Partly Cloudy 79 26.1 70 21.1 74 74 WNW 7 11 29.81 1010 10 16 0.00 0.00
4:33 pm 16:33 Mostly Sunny 81 27.2 71 21.7 72 72 Calm 29.81 1009 10 16 0.00 0.00
4:53 pm 16:53 Mostly Sunny 82 27.8 70 21.1 67 67 VRB 6 9 29.80 1009 10 16 0.00 0.00
5:53 pm 17:53 Mostly Cloudy 82 27.8 70 21.1 67 67 W 3 6 29.80 1009 10 16 0.00 0.00
6:53 pm 18:53 Sunny 82 27.8 70 21.1 67 67 W 6 9 29.79 1009 10 16 0.00 0.00
7:53 pm 19:53 Mostly Cloudy 81 27.2 70 21.1 69 69 SW 7 11 29.79 1009 10 16 0.00 0.00
8:53 pm 20:53 Partly Cloudy 79 26.1 68 20 69 69 NNW 7 11 29.81 1009 10 16 0.00 0.00
9:53 pm 21:53 Clear 76 24.4 66 18.9 72 72 NNW 7 11 29.83 1010 10 16 0.00 0.00
10:53 pm 22:53 Clear 74 23.3 63 17.2 69 69 N 7 11 29.84 1011 10 16 0.00 0.00
11:53 pm 23:53 Clear 71 21.7 63 17.2 76 76 NNW 6 9 29.85 1011 10 16 0.00 0.00

Powered by AerisWeather